Time,TemperatureF,DewpointF,PressureIn,WindDirection,WindDirectionDegrees,WindSpeedMPH,WindSpeedGustMPH,Humidity,HourlyPrecipIn,Conditions,Clouds,dailyrainin,SoftwareType,DateUTC
2013-02-16 00:02:00,0.0,-2.0,-100.00,WNW,285,7.0,8.0,92,0.00,,,0.00,,2013-02-16 06:02:00,
2013-02-16 00:11:00,1.0,0.0,-100.00,West,280,7.0,9.0,92,0.00,,,0.00,,2013-02-16 06:11:00,
2013-02-16 00:21:00,3.0,1.0,-100.00,West,280,8.0,11.0,92,0.00,,,0.00,,2013-02-16 06:21:00,
2013-02-16 00:32:00,2.0,1.0,-100.00,WNW,285,9.0,10.0,92,0.00,,,0.00,,2013-02-16 06:32:00,
2013-02-16 00:42:00,2.0,1.0,-100.00,WNW,285,8.0,9.0,92,0.00,,,0.00,,2013-02-16 06:42:00,
2013-02-16 00:51:00,2.0,0.0,-100.00,WNW,285,9.0,10.0,92,0.00,,,0.00,,2013-02-16 06:51:00,
2013-02-16 01:02:00,2.0,0.0,-100.00,WNW,290,9.0,12.0,92,0.00,,,0.00,,2013-02-16 07:02:00,
2013-02-16 01:11:00,2.0,1.0,-100.00,WNW,285,12.0,14.0,93,0.00,,,0.00,,2013-02-16 07:11:00,
2013-02-16 01:21:00,2.0,1.0,-100.00,WNW,300,9.0,14.0,93,0.00,,,0.00,,2013-02-16 07:21:00,
2013-02-16 01:31:00,3.0,1.0,-100.00,WNW,300,9.0,11.0,93,0.00,,,0.00,,2013-02-16 07:31:00,
2013-02-16 01:42:00,3.0,1.0,-100.00,WNW,300,8.0,9.0,93,0.00,,,0.00,,2013-02-16 07:42:00,
2013-02-16 01:52:00,4.0,3.0,-100.00,NW,305,8.0,10.0,94,0.00,,,0.00,,2013-02-16 07:52:00,
2013-02-16 02:01:00,4.0,3.0,-100.00,NW,315,10.0,11.0,94,0.00,,,0.00,,2013-02-16 08:01:00,
2013-02-16 02:11:00,4.0,3.0,-100.00,NW,315,9.0,12.0,94,0.00,,,0.00,,2013-02-16 08:11:00,
2013-02-16 02:21:00,4.0,3.0,-100.00,NW,315,9.0,11.0,94,0.00,,,0.00,,2013-02-16 08:21:00,
2013-02-16 02:31:00,4.0,3.0,-100.00,NW,315,9.0,12.0,94,0.00,,,0.00,,2013-02-16 08:31:00,
2013-02-16 02:42:00,5.0,3.0,-100.00,NW,310,9.0,12.0,94,0.00,,,0.00,,2013-02-16 08:42:00,
2013-02-16 02:52:00,5.0,3.0,-100.00,NW,320,7.0,11.0,94,0.00,,,0.00,,2013-02-16 08:52:00,
2013-02-16 03:01:00,5.0,3.0,-100.00,NW,320,6.0,8.0,94,0.00,,,0.00,,2013-02-16 09:01:00,
2013-02-16 03:11:00,5.0,3.0,-100.00,NNW,335,5.0,7.0,95,0.00,,,0.00,,2013-02-16 09:11:00,
2013-02-16 03:21:00,4.0,3.0,-100.00,NW,325,4.0,6.0,95,0.00,,,0.00,,2013-02-16 09:21:00,
2013-02-16 03:31:00,4.0,3.0,-100.00,NW,325,4.0,5.0,95,0.00,,,0.00,,2013-02-16 09:31:00,
2013-02-16 03:42:00,2.0,1.0,-100.00,NW,315,4.0,5.0,95,0.00,,,0.00,,2013-02-16 09:42:00,
2013-02-16 03:51:00,2.0,1.0,-100.00,WNW,295,4.0,5.0,95,0.00,,,0.00,,2013-02-16 09:51:00,
2013-02-16 04:01:00,0.0,0.0,-100.00,WNW,285,4.0,6.0,95,0.00,,,0.00,,2013-02-16 10:01:00,
2013-02-16 04:11:00,0.0,0.0,-100.00,WNW,300,7.0,9.0,95,0.00,,,0.00,,2013-02-16 10:11:00,
2013-02-16 04:21:00,3.0,1.0,-100.00,NW,310,8.0,11.0,95,0.00,,,0.00,,2013-02-16 10:21:00,
2013-02-16 04:31:00,3.0,1.0,-100.00,NW,315,6.0,9.0,95,0.00,,,0.00,,2013-02-16 10:31:00,
2013-02-16 04:42:00,4.0,3.0,-100.00,NW,315,6.0,8.0,95,0.00,,,0.00,,2013-02-16 10:42:00,
2013-02-16 04:51:00,4.0,3.0,-100.00,NW,320,5.0,7.0,95,0.00,,,0.00,,2013-02-16 10:51:00,
2013-02-16 05:02:00,5.0,3.0,-100.00,NNW,330,4.0,6.0,95,0.00,,,0.00,,2013-02-16 11:02:00,
2013-02-16 05:11:00,4.0,3.0,-100.00,NNW,330,4.0,6.0,95,0.00,,,0.00,,2013-02-16 11:11:00,
2013-02-16 05:22:00,4.0,3.0,-100.00,NW,315,2.0,4.0,95,0.00,,,0.00,,2013-02-16 11:22:00,
2013-02-16 05:32:00,4.0,3.0,-100.00,NNW,335,1.0,2.0,95,0.00,,,0.00,,2013-02-16 11:32:00,
2013-02-16 05:42:00,4.0,3.0,-100.00,North,350,1.0,1.0,95,0.00,,,0.00,,2013-02-16 11:42:00,
2013-02-16 05:52:00,4.0,3.0,-100.00,North,355,0.0,1.0,95,0.00,,,0.00,,2013-02-16 11:52:00,
2013-02-16 06:01:00,4.0,3.0,-100.00,North,355,0.0,0.0,95,0.00,,,0.00,,2013-02-16 12:01:00,
2013-02-16 06:12:00,4.0,3.0,-100.00,North,355,0.0,0.0,95,0.00,,,0.00,,2013-02-16 12:12:00,
2013-02-16 06:22:00,4.0,3.0,-100.00,North,355,0.0,0.0,95,0.00,,,0.00,,2013-02-16 12:22:00,
2013-02-16 06:32:00,4.0,3.0,-100.00,North,5,0.0,0.0,95,0.00,,,0.00,,2013-02-16 12:32:00,
2013-02-16 06:42:00,4.0,3.0,-100.00,North,5,0.0,0.0,95,0.00,,,0.00,,2013-02-16 12:42:00,
2013-02-16 06:52:00,4.0,3.0,-100.00,NE,40,0.0,1.0,95,0.00,,,0.00,,2013-02-16 12:52:00,
2013-02-16 07:02:00,4.0,3.0,-100.00,NE,40,0.0,0.0,95,0.00,,,0.00,,2013-02-16 13:02:00,
2013-02-16 07:11:00,4.0,3.0,-100.00,NE,40,0.0,0.0,95,0.00,,,0.00,,2013-02-16 13:11:00,
2013-02-16 07:21:00,4.0,3.0,-100.00,NE,40,0.0,0.0,95,0.00,,,0.00,,2013-02-16 13:21:00,
2013-02-16 07:31:00,4.0,3.0,-100.00,NE,40,0.0,1.0,95,0.00,,,0.00,,2013-02-16 13:31:00,
2013-02-16 07:41:00,5.0,3.0,-100.00,NE,40,0.0,0.0,95,0.00,,,0.00,,2013-02-16 13:41:00,
2013-02-16 07:51:00,5.0,3.0,-100.00,NE,40,0.0,0.0,95,0.00,,,0.00,,2013-02-16 13:51:00,
2013-02-16 08:01:00,5.0,5.0,-100.00,NE,40,0.0,0.0,95,0.00,,,0.00,,2013-02-16 14:01:00,
2013-02-16 08:11:00,5.0,5.0,-100.00,ENE,65,0.0,0.0,95,0.00,,,0.00,,2013-02-16 14:11:00,
2013-02-16 08:21:00,6.0,5.0,-100.00,ENE,65,0.0,0.0,95,0.00,,,0.00,,2013-02-16 14:21:00,
2013-02-16 08:32:00,7.0,5.0,-100.00,NW,315,0.0,0.0,95,0.00,,,0.00,,2013-02-16 14:32:00,
2013-02-16 08:41:00,7.0,7.0,-100.00,SW,220,0.0,1.0,95,0.00,,,0.00,,2013-02-16 14:41:00,
2013-02-16 08:52:00,8.0,7.0,-100.00,SW,220,0.0,1.0,95,0.00,,,0.00,,2013-02-16 14:52:00,
2013-02-16 09:01:00,8.0,7.0,-100.00,West,275,1.0,1.0,95,0.00,,,0.00,,2013-02-16 15:01:00,
2013-02-16 09:11:00,8.0,7.0,-100.00,SSE,160,0.0,1.0,95,0.00,,,0.00,,2013-02-16 15:11:00,
2013-02-16 09:21:00,8.0,7.0,-100.00,WSW,245,1.0,1.0,95,0.00,,,0.00,,2013-02-16 15:21:00,
2013-02-16 09:32:00,10.0,9.0,-100.00,SW,235,0.0,1.0,95,0.00,,,0.00,,2013-02-16 15:32:00,
2013-02-16 09:41:00,10.0,9.0,-100.00,ESE,115,2.0,3.0,95,0.00,,,0.00,,2013-02-16 15:41:00,
2013-02-16 09:51:00,11.0,9.0,-100.00,East,90,0.0,2.0,95,0.00,,,0.00,,2013-02-16 15:51:00,
2013-02-16 10:01:00,10.0,9.0,-100.00,ESE,105,2.0,4.0,95,0.00,,,0.00,,2013-02-16 16:01:00,
2013-02-16 10:11:00,9.0,9.0,-100.00,SE,145,4.0,5.0,95,0.00,,,0.00,,2013-02-16 16:11:00,
2013-02-16 10:21:00,10.0,9.0,-100.00,SSE,150,1.0,4.0,95,0.00,,,0.00,,2013-02-16 16:21:00,
2013-02-16 10:32:00,10.0,9.0,-100.00,SE,135,5.0,6.0,93,0.00,,,0.00,,2013-02-16 16:32:00,
2013-02-16 10:41:00,9.0,9.0,-100.00,South,175,3.0,6.0,93,0.00,,,0.00,,2013-02-16 16:41:00,
2013-02-16 10:51:00,11.0,9.0,-100.00,SE,145,1.0,4.0,92,0.00,,,0.00,,2013-02-16 16:51:00,
2013-02-16 11:01:00,11.0,9.0,-100.00,SE,130,4.0,5.0,90,0.00,,,0.00,,2013-02-16 17:01:00,
2013-02-16 11:11:00,11.0,9.0,-100.00,SSE,155,2.0,5.0,89,0.00,,,0.00,,2013-02-16 17:11:00,
2013-02-16 11:21:00,11.0,9.0,-100.00,South,180,4.0,7.0,87,0.00,,,0.00,,2013-02-16 17:21:00,
2013-02-16 11:32:00,11.0,7.0,-100.00,ESE,115,6.0,7.0,86,0.00,,,0.00,,2013-02-16 17:32:00,
2013-02-16 11:41:00,11.0,7.0,-100.00,SE,130,4.0,9.0,85,0.00,,,0.00,,2013-02-16 17:41:00,
2013-02-16 11:52:00,13.0,9.0,-100.00,ESE,115,2.0,7.0,84,0.00,,,0.00,,2013-02-16 17:52:00,
2013-02-16 12:02:00,13.0,9.0,-100.00,SE,135,4.0,6.0,82,0.00,,,0.00,,2013-02-16 18:02:00,
2013-02-16 12:11:00,12.0,9.0,-100.00,ESE,105,5.0,7.0,81,0.00,,,0.00,,2013-02-16 18:11:00,
2013-02-16 12:21:00,13.0,9.0,-100.00,SE,125,4.0,7.0,80,0.00,,,0.00,,2013-02-16 18:21:00,
2013-02-16 12:33:00,13.0,9.0,-100.00,ESE,115,3.0,6.0,80,0.00,,,0.00,,2013-02-16 18:33:00,
2013-02-16 12:42:00,14.0,9.0,-100.00,SE,140,4.0,7.0,78,0.00,,,0.00,,2013-02-16 18:42:00,
2013-02-16 12:51:00,13.0,7.0,-100.00,SE,140,6.0,7.0,78,0.00,,,0.00,,2013-02-16 18:51:00,
2013-02-16 13:02:00,12.0,7.0,-100.00,SE,130,6.0,9.0,79,0.00,,,0.00,,2013-02-16 19:02:00,
2013-02-16 13:11:00,12.0,7.0,-100.00,SE,130,7.0,9.0,79,0.00,,,0.00,,2013-02-16 19:11:00,
2013-02-16 13:21:00,13.0,7.0,-100.00,SSE,150,6.0,7.0,79,0.00,,,0.00,,2013-02-16 19:21:00,
2013-02-16 13:31:00,12.0,7.0,-100.00,SE,130,6.0,9.0,79,0.00,,,0.00,,2013-02-16 19:31:00,
2013-02-16 13:42:00,12.0,7.0,-100.00,SE,145,6.0,7.0,79,0.00,,,0.00,,2013-02-16 19:42:00,
2013-02-16 13:52:00,13.0,9.0,-100.00,ESE,110,4.0,7.0,79,0.00,,,0.00,,2013-02-16 19:52:00,
2013-02-16 14:01:00,14.0,9.0,-100.00,SE,145,4.0,6.0,78,0.00,,,0.00,,2013-02-16 20:01:00,
2013-02-16 14:11:00,14.0,9.0,-100.00,ESE,110,4.0,7.0,77,0.00,,,0.00,,2013-02-16 20:11:00,
2013-02-16 14:21:00,13.0,7.0,-100.00,SE,135,5.0,7.0,77,0.00,,,0.00,,2013-02-16 20:21:00,
2013-02-16 14:32:00,13.0,7.0,-100.00,ESE,115,4.0,7.0,77,0.00,,,0.00,,2013-02-16 20:32:00,
2013-02-16 14:42:00,14.0,9.0,-100.00,ESE,120,4.0,7.0,77,0.00,,,0.00,,2013-02-16 20:42:00,
2013-02-16 14:52:00,14.0,9.0,-100.00,SE,135,4.0,7.0,76,0.00,,,0.00,,2013-02-16 20:52:00,
2013-02-16 15:02:00,15.0,9.0,-100.00,SE,135,4.0,7.0,75,0.00,,,0.00,,2013-02-16 21:02:00,
2013-02-16 15:11:00,15.0,9.0,-100.00,SE,135,4.0,7.0,74,0.00,,,0.00,,2013-02-16 21:11:00,
2013-02-16 15:21:00,15.0,9.0,-100.00,SE,140,4.0,6.0,72,0.00,,,0.00,,2013-02-16 21:21:00,
2013-02-16 15:31:00,16.0,9.0,-100.00,East,100,2.0,6.0,72,0.00,,,0.00,,2013-02-16 21:31:00,
2013-02-16 15:41:00,15.0,9.0,-100.00,SE,125,4.0,6.0,71,0.00,,,0.00,,2013-02-16 21:41:00,
2013-02-16 15:52:00,16.0,9.0,-100.00,ESE,110,3.0,5.0,71,0.00,,,0.00,,2013-02-16 21:52:00,
2013-02-16 16:01:00,16.0,9.0,-100.00,ESE,120,4.0,6.0,70,0.00,,,0.00,,2013-02-16 22:01:00,
2013-02-16 16:11:00,17.0,9.0,-100.00,SE,135,4.0,4.0,70,0.00,,,0.00,,2013-02-16 22:11:00,
2013-02-16 16:21:00,18.0,9.0,-100.00,SSE,155,3.0,5.0,68,0.00,,,0.00,,2013-02-16 22:21:00,
2013-02-16 16:32:00,17.0,9.0,-100.00,SE,125,4.0,6.0,68,0.00,,,0.00,,2013-02-16 22:32:00,
2013-02-16 16:42:00,16.0,7.0,-100.00,SE,145,4.0,6.0,68,0.00,,,0.00,,2013-02-16 22:42:00,
2013-02-16 16:51:00,17.0,9.0,-100.00,SSE,155,3.0,5.0,68,0.00,,,0.00,,2013-02-16 22:51:00,
2013-02-16 17:02:00,17.0,9.0,-100.00,SE,145,2.0,4.0,68,0.00,,,0.00,,2013-02-16 23:02:00,
2013-02-16 17:11:00,16.0,7.0,-100.00,SE,130,4.0,4.0,68,0.00,,,0.00,,2013-02-16 23:11:00,
2013-02-16 17:21:00,16.0,7.0,-100.00,SSE,165,4.0,5.0,68,0.00,,,0.00,,2013-02-16 23:21:00,
2013-02-16 17:31:00,15.0,7.0,-100.00,SE,140,3.0,4.0,69,0.00,,,0.00,,2013-02-16 23:31:00,
2013-02-16 17:42:00,14.0,5.0,-100.00,SE,145,3.0,4.0,70,0.00,,,0.00,,2013-02-16 23:42:00,
2013-02-16 17:52:00,13.0,5.0,-100.00,SSE,160,2.0,4.0,72,0.00,,,0.00,,2013-02-16 23:52:00,
2013-02-16 18:02:00,13.0,5.0,-100.00,SSE,155,2.0,4.0,73,0.00,,,0.00,,2013-02-17 00:02:00,
2013-02-16 18:12:00,12.0,5.0,-100.00,SE,145,2.0,2.0,74,0.00,,,0.00,,2013-02-17 00:12:00,
2013-02-16 18:21:00,11.0,5.0,-100.00,SE,130,3.0,3.0,76,0.00,,,0.00,,2013-02-17 00:21:00,
2013-02-16 18:32:00,10.0,5.0,-100.00,SE,130,2.0,3.0,77,0.00,,,0.00,,2013-02-17 00:32:00,
2013-02-16 18:41:00,8.0,3.0,-100.00,SE,145,2.0,2.0,77,0.00,,,0.00,,2013-02-17 00:41:00,
2013-02-16 18:51:00,8.0,3.0,-100.00,SE,145,1.0,2.0,78,0.00,,,0.00,,2013-02-17 00:51:00,
2013-02-16 19:01:00,8.0,3.0,-100.00,SE,145,1.0,2.0,79,0.00,,,0.00,,2013-02-17 01:01:00,
2013-02-16 19:11:00,8.0,3.0,-100.00,SSE,150,1.0,2.0,80,0.00,,,0.00,,2013-02-17 01:11:00,
2013-02-16 19:21:00,7.0,3.0,-100.00,ESE,120,2.0,4.0,82,0.00,,,0.00,,2013-02-17 01:21:00,
2013-02-16 19:31:00,7.0,3.0,-100.00,SE,125,2.0,3.0,83,0.00,,,0.00,,2013-02-17 01:31:00,
2013-02-16 19:41:00,6.0,3.0,-100.00,SE,125,3.0,4.0,84,0.00,,,0.00,,2013-02-17 01:41:00,
2013-02-16 19:52:00,6.0,3.0,-100.00,SE,130,3.0,4.0,84,0.00,,,0.00,,2013-02-17 01:52:00,
2013-02-16 20:01:00,6.0,1.0,-100.00,SE,130,3.0,4.0,84,0.00,,,0.00,,2013-02-17 02:01:00,
2013-02-16 20:11:00,6.0,3.0,-100.00,SE,125,4.0,4.0,85,0.00,,,0.00,,2013-02-17 02:11:00,
2013-02-16 20:21:00,5.0,1.0,-100.00,SE,125,4.0,4.0,86,0.00,,,0.00,,2013-02-17 02:21:00,
2013-02-16 20:31:00,6.0,3.0,-100.00,SE,125,4.0,6.0,87,0.00,,,0.00,,2013-02-17 02:31:00,
2013-02-16 20:41:00,6.0,3.0,-100.00,ESE,115,4.0,6.0,87,0.00,,,0.00,,2013-02-17 02:41:00,
2013-02-16 20:52:00,6.0,3.0,-100.00,East,100,4.0,6.0,88,0.00,,,0.00,,2013-02-17 02:52:00,
2013-02-16 21:02:00,6.0,3.0,-100.00,East,100,4.0,6.0,88,0.00,,,0.00,,2013-02-17 03:02:00,
2013-02-16 21:11:00,6.0,3.0,-100.00,ESE,105,4.0,6.0,88,0.00,,,0.00,,2013-02-17 03:11:00,
2013-02-16 21:21:00,6.0,3.0,-100.00,East,90,5.0,6.0,88,0.00,,,0.00,,2013-02-17 03:21:00,
2013-02-16 21:31:00,7.0,3.0,-100.00,East,95,5.0,6.0,88,0.00,,,0.00,,2013-02-17 03:31:00,
2013-02-16 21:42:00,8.0,5.0,-100.00,ESE,105,6.0,7.0,88,0.00,,,0.00,,2013-02-17 03:42:00,
2013-02-16 21:51:00,8.0,5.0,-100.00,ESE,105,5.0,6.0,88,0.00,,,0.00,,2013-02-17 03:51:00,
2013-02-16 22:01:00,8.0,5.0,-100.00,East,95,6.0,6.0,88,0.00,,,0.00,,2013-02-17 04:01:00,
2013-02-16 22:11:00,8.0,5.0,-100.00,East,95,6.0,7.0,88,0.00,,,0.00,,2013-02-17 04:11:00,
2013-02-16 22:21:00,8.0,5.0,-100.00,East,100,5.0,6.0,87,0.00,,,0.00,,2013-02-17 04:21:00,
2013-02-16 22:31:00,8.0,5.0,-100.00,East,100,5.0,6.0,87,0.00,,,0.00,,2013-02-17 04:31:00,
2013-02-16 22:41:00,8.0,5.0,-100.00,East,100,5.0,6.0,87,0.00,,,0.00,,2013-02-17 04:41:00,
2013-02-16 22:51:00,8.0,5.0,-100.00,East,100,5.0,6.0,87,0.00,,,0.00,,2013-02-17 04:51:00,
2013-02-16 23:01:00,8.0,5.0,-100.00,East,100,5.0,6.0,87,0.00,,,0.00,,2013-02-17 05:01:00,
2013-02-16 23:33:00,9.0,7.0,-100.00,ESE,115,6.0,9.0,87,0.00,,,0.00,,2013-02-17 05:33:00,
2013-02-16 23:42:00,10.0,7.0,-100.00,ESE,120,7.0,8.0,87,0.00,,,0.00,,2013-02-17 05:42:00,
2013-02-16 23:52:00,10.0,7.0,-100.00,SE,125,5.0,7.0,86,0.00,,,0.00,,2013-02-17 05:52:00,